EW7774 Weather Reports


Display with metric or nautical units.
time (UTC)temp
F
wind
direction
speed
MPH
gust
MPH
rain 1hr
in
rain 24hr
in
rain mn
in
humidity
%
barometer
mb
20260906004027 70 0.0 0.0 0.00 0.00 0.00 87 1012.5
20260906003821 71 0.0 0.0 0.00 0.00 0.00 87 1011.8
20260906003526 70 0.0 0.0 0.00 0.00 0.00 86 1012.5
20260906003317 71 0.0 0.0 0.00 0.00 0.00 86 1011.8
20260906003045 71 0.0 0.0 0.00 0.00 0.00 86 1012.3
20260906002830 71 0.0 0.0 0.00 0.00 0.00 86 1011.7
20260906002525 71 0.0 0.0 0.00 0.00 0.00 85 1012.3
20260906002325 72 0.0 0.0 0.00 0.00 0.00 85 1011.8
20260906002024 71 0.0 0.0 0.00 0.00 0.00 84 1012.4
20260906001818 72 0.0 0.0 0.00 0.00 0.00 84 1011.8
20260906001544 72 0.0 0.0 0.00 0.00 0.00 83 1012.4
20260906001352 72 0.0 0.0 0.00 0.00 0.00 84 1011.8
20260906001027 72 0.0 0.0 0.00 0.00 0.00 84 1012.4
20260906000824 72 0.0 0.0 0.00 0.00 0.00 84 1011.7
20260906000525 72 0.0 0.0 0.00 0.00 0.00 83 1012.2
20260906000319 73 0.0 0.0 0.00 0.00 0.00 83 1011.6
20260906000044 72 0.0 0.0 0.00 0.00 0.00 83 1012.1
20260905235832 73 0.0 0.0 0.00 0.00 0.00 83 1011.5
20260905235525 73 0.0 0.0 0.00 0.00 0.00 82 1012.2
20260905235326 73 0.0 0.0 0.00 0.00 0.00 82 1011.5
20260905235027 73 0.0 0.0 0.00 0.00 0.00 81 1012.2
20260905234818 74 0.0 0.0 0.00 0.00 0.00 82 1011.6
20260905234546 73 0.0 0.0 0.00 0.00 0.00 81 1012.2
20260905234318 74 0.0 0.0 0.00 0.00 0.00 81 1011.4
20260905234026 74 0.0 0.0 0.00 0.00 0.00 80 1012.0
20260905233832 74 0.0 0.0 0.00 0.00 0.00 80 1011.3
20260905233528 74 0.0 0.0 0.00 0.00 0.00 79 1011.9
20260905233325 75 0.0 0.0 0.00 0.00 0.00 80 1011.2
20260905233047 74 0.0 0.0 0.00 0.00 0.00 79 1011.9
20260905232821 75 0.0 0.0 0.00 0.00 0.00 79 1011.2
20260905232525 75 0.0 0.0 0.00 0.00 0.00 78 1011.9
20260905232333 75 0.0 0.0 0.00 0.00 0.00 78 1011.1
20260905232024 75 0.0 0.0 0.00 0.00 0.00 78 1011.8
20260905231823 76 0.0 0.0 0.00 0.00 0.00 78 1011.1
20260905231547 75 0.0 0.0 0.00 0.00 0.00 78 1011.8
20260905231024 75 0.0 0.0 0.00 0.00 0.00 77 1011.7
20260905230815 76 77 0.0 0.0 0.00 0.00 0.00 77 1011.0
20260905230527 76 0 0.0 0.0 0.00 0.00 0.00 77 1011.8
20260905230330 76 77 0.0 0.0 0.00 0.00 0.00 77 1011.1
20260905230045 76 0 0.0 0.0 0.00 0.00 0.00 77 1011.7
20260905225822 76 77 0.0 0.0 0.00 0.00 0.00 77 1011.1
20260905225525 76 0 0.0 0.0 0.00 0.00 0.00 77 1011.7
20260905225317 76 76 0.0 0.0 0.00 0.00 0.00 77 1011.0
20260905225024 76 0 0.0 0.0 0.00 0.00 0.00 76 1011.7
20260905224833 77 76 0.0 0.0 0.00 0.00 0.00 75 1011.0
20260905224545 76 0 0.0 0.0 0.00 0.00 0.00 76 1011.6
20260905224324 77 76 0.0 0.0 0.00 0.00 0.00 77 1010.9
20260905224025 76 0 0.0 0.0 0.00 0.00 0.00 76 1011.4
20260905223833 77 76 0.0 0.0 0.00 0.00 0.00 77 1010.8
20260905223525 77 0 0.0 0.0 0.00 0.00 0.00 77 1011.5
20260905223324 77 76 0.0 0.0 0.00 0.00 0.00 76 1010.9
20260905223046 77 0 0.0 0.0 0.00 0.00 0.00 76 1011.6
20260905222816 77 76 0.0 0.0 0.00 0.00 0.00 76 1011.0
20260905222525 77 0 0.0 0.0 0.00 0.00 0.00 76 1011.6
20260905222327 77 76 0.0 0.0 0.00 0.00 0.00 77 1010.9
20260905222024 77 0 0.0 2.0 0.00 0.00 0.00 76 1011.5
20260905221823 77 76 0.0 2.0 0.00 0.00 0.00 75 1010.8
20260905221605 77 0 0.0 2.0 0.00 0.00 0.00 74 1011.4
20260905221354 78 76 0.0 2.0 0.00 0.00 0.00 74 1010.8
20260905221025 77 0 0.0 0.0 0.00 0.00 0.00 74 1011.4
20260905220844 78 70 0.0 0.0 0.00 0.00 0.00 75 1010.7
20260905220524 77 0 0.0 0.0 0.00 0.00 0.00 74 1011.4
20260905220334 78 70 0.0 0.0 0.00 0.00 0.00 75 1010.8
20260905220046 78 0 0.0 0.0 0.00 0.00 0.00 74 1011.3
20260905215825 78 70 0.0 0.0 0.00 0.00 0.00 73 1010.7
20260905215524 78 0 0.0 0.0 0.00 0.00 0.00 72 1011.2
20260905215317 78 70 0.0 0.0 0.00 0.00 0.00 71 1010.6
20260905215027 78 0 0.0 0.0 0.00 0.00 0.00 72 1011.2
20260905214832 78 70 0.0 0.0 0.00 0.00 0.00 72 1010.6
20260905214554 78 0 0.0 1.0 0.00 0.00 0.00 72 1011.2
20260905214326 79 70 0.0 1.0 0.00 0.00 0.00 71 1010.6
20260905214025 78 0 0.0 1.0 0.00 0.00 0.00 71 1011.1
20260905213819 79 19 0.0 0.0 0.00 0.00 0.00 72 1010.6
20260905213527 78 0 0.0 2.0 0.00 0.00 0.00 71 1011.1
20260905213352 78 79 0.0 0.0 0.00 0.00 0.00 72 1010.5
20260905213056 78 0 0.0 2.0 0.00 0.00 0.00 73 1011.0
20260905212826 78 79 0.0 2.0 0.00 0.00 0.00 73 1010.4
20260905212524 78 0 0.0 2.0 0.00 0.00 0.00 72 1010.9
20260905212322 78 83 0.0 1.0 0.00 0.00 0.00 72 1010.4
20260905212026 78 0 0.0 0.0 0.00 0.00 0.00 75 1010.9
20260905211816 78 82 0.0 0.0 0.00 0.00 0.00 75 1010.3
20260905211559 78 0 0.0 0.0 0.00 0.00 0.00 72 1010.9
20260905211327 78 82 0.0 0.0 0.00 0.00 0.00 74 1010.3
20260905211025 78 0 0.0 0.0 0.00 0.00 0.00 74 1010.7
20260905210817 78 81 0.0 0.0 0.00 0.00 0.00 74 1010.2
20260905210525 78 0 0.0 0.0 0.00 0.00 0.00 74 1010.7
20260905210330 78 81 0.0 0.0 0.00 0.00 0.00 75 1010.2
20260905210053 78 0 0.0 0.0 0.00 0.00 0.00 76 1010.7
20260905205821 78 81 0.0 0.0 0.00 0.00 0.00 75 1010.2
20260905205524 78 0 0.0 0.0 0.00 0.00 0.00 76 1010.8
20260905205332 78 81 0.0 0.0 0.00 0.00 0.00 74 1010.3
20260905205031 78 0 0.0 0.0 0.00 0.00 0.00 76 1010.8
20260905204845 78 81 0.0 0.0 0.00 0.00 0.00 76 1010.3
20260905204547 78 0 0.0 0.0 0.00 0.00 0.00 74 1010.8
20260905204318 78 81 0.0 0.0 0.00 0.00 0.00 74 1010.3
20260905204027 78 0 0.0 0.0 0.00 0.00 0.00 73 1010.8
20260905203831 78 81 0.0 0.0 0.00 0.00 0.00 75 1010.3
20260905203528 78 0 0.0 0.0 0.00 0.00 0.00 73 1010.8
20260905203324 78 81 0.0 0.0 0.00 0.00 0.00 75 1010.2
20260905203053 78 0 0.0 2.0 0.00 0.00 0.00 74 1010.9
20260905202817 79 81 0.0 2.0 0.00 0.00 0.00 75 1010.3
20260905202525 78 0 0.0 2.0 0.00 0.00 0.00 74 1011.0
20260905202351 79 81 0.0 2.0 0.00 0.00 0.00 76 1010.4
20260905202028 78 0 0.0 2.0 0.00 0.00 0.00 74 1010.9
20260905201843 79 70 0.0 2.0 0.00 0.00 0.00 75 1010.3
20260905201601 78 0 0.0 2.0 0.00 0.00 0.00 73 1010.9
20260905201314 79 25 0.0 2.0 0.00 0.00 0.00 75 1010.4
20260905201024 78 0 0.0 3.0 0.00 0.00 0.00 72 1011.0
20260905200826 79 355 0.0 2.0 0.00 0.00 0.00 72 1010.4
20260905200525 78 0 0.0 3.0 0.00 0.00 0.00 72 1011.1
20260905200322 79 69 0.0 3.0 0.00 0.00 0.00 74 1010.4
20260905200047 79 0 0.0 7.0 0.00 0.00 0.00 73 1011.0
20260905195818 79 78 0.0 7.0 0.00 0.00 0.00 73 1010.5
20260905195527 79 0 0.0 7.0 0.00 0.00 0.00 74 1011.1
20260905195329 79 66 1.0 7.0 0.00 0.00 0.00 73 1010.5
20260905195027 79 0 0.0 3.0 0.00 0.00 0.00 72 1011.2
20260905194822 79 148 0.0 0.0 0.00 0.00 0.00 72 1010.6
20260905194551 79 0 0.0 0.0 0.00 0.00 0.00 72 1011.2
20260905194318 80 94 0.0 0.0 0.00 0.00 0.00 74 1010.6
20260905194028 79 0 0.0 0.0 0.00 0.00 0.00 75 1011.3
20260905193830 80 95 0.0 0.0 0.00 0.00 0.00 76 1010.7
20260905193527 79 0 0.0 8.0 0.00 0.00 0.00 73 1011.3
20260905193324 80 95 0.0 7.0 0.00 0.00 0.00 73 1010.6
20260905193054 79 0 0.0 9.0 0.00 0.00 0.00 72 1011.3
20260905192834 80 96 0.0 7.0 0.00 0.00 0.00 72 1010.6
20260905192527 79 0 0.0 9.0 0.00 0.00 0.00 71 1011.2
20260905192327 80 129 0.0 2.0 0.00 0.00 0.00 73 1010.6
20260905192025 79 0 0.0 2.0 0.00 0.00 0.00 71 1011.2
20260905191819 80 67 0.0 2.0 0.00 0.00 0.00 75 1010.6
20260905191544 80 0 0.0 2.0 0.00 0.00 0.00 75 1011.3
20260905191352 80 54 0.0 2.0 0.00 0.00 0.00 73 1010.6
20260905191027 79 0 0.0 2.0 0.00 0.00 0.00 72 1011.1
20260905190823 80 54 1.0 2.0 0.00 0.00 0.00 71 1010.6
20260905190525 79 0 0.0 7.0 0.00 0.00 0.00 72 1011.3
20260905190337 80 133 0.0 6.0 0.00 0.00 0.00 72 1010.7
20260905190052 79 0 0.0 7.0 0.00 0.00 0.00 71 1011.4
20260905185827 80 82 1.0 6.0 0.00 0.00 0.00 74 1010.8
20260905185527 79 85 0.0 4.0 0.00 0.00 0.00 72 1011.4
20260905185318 79 79 0.0 3.0 0.00 0.00 0.00 74 1010.8
20260905185027 79 0 0.0 4.0 0.00 0.00 0.00 73 1011.5
20260905184825 79 78 0.0 4.0 0.00 0.00 0.00 73 1011.0
20260905184555 79 0 0.0 4.0 0.00 0.00 0.00 73 1011.6
20260905184318 79 109 0.0 2.0 0.00 0.00 0.00 75 1011.0
20260905184024 79 0 0.0 5.0 0.00 0.00 0.00 76 1011.8
20260905183827 79 77 0.0 5.0 0.00 0.00 0.00 77 1011.3
20260905183527 79 0 0.0 5.0 0.00 0.00 0.00 75 1011.8
20260905183340 79 74 0.0 5.0 0.00 0.00 0.00 76 1011.1
20260905183045 79 0 0.0 5.0 0.00 0.00 0.00 78 1011.8
20260905182828 79 67 0.0 0.0 0.00 0.00 0.00 76 1011.2
20260905182531 78 0 0.0 0.0 0.00 0.00 0.00 75 1011.9
20260905182317 79 67 0.0 0.0 0.00 0.00 0.00 76 1011.3
20260905182027 78 0 0.0 0.0 0.00 0.00 0.00 77 1012.0
20260905181843 79 65 0.0 0.0 0.00 0.00 0.00 76 1011.4
20260905181559 78 0 0.0 0.0 0.00 0.00 0.00 76 1012.0
20260905181316 78 65 0.0 0.0 0.00 0.00 0.00 77 1011.4
20260905181027 78 0 0.0 2.0 0.00 0.00 0.00 77 1012.0
20260905180829 78 65 0.0 2.0 0.00 0.00 0.00 77 1011.5
20260905180525 78 0 0.0 2.0 0.00 0.00 0.00 76 1012.0
20260905180344 78 65 0.0 2.0 0.00 0.00 0.00 78 1011.4
20260905180053 77 0 0.0 0.0 0.00 0.00 0.00 79 1012.0
20260905175837 78 65 0.0 0.0 0.00 0.00 0.00 79 1011.5
20260905175530 77 0 0.0 0.0 0.00 0.00 0.00 78 1012.1
20260905175331 78 65 0.0 0.0 0.00 0.00 0.00 78 1011.6
20260905175027 77 0 0.0 0.0 0.00 0.00 0.00 76 1012.2
20260905174845 78 65 0.0 0.0 0.00 0.00 0.00 77 1011.7
20260905174551 77 0 0.0 0.0 0.00 0.00 0.00 77 1012.3
20260905174318 78 65 0.0 0.0 0.00 0.00 0.00 77 1011.8
20260905174024 77 0 0.0 0.0 0.00 0.00 0.00 77 1012.4
20260905173846 78 65 0.0 0.0 0.00 0.00 0.00 78 1011.8
20260905173525 78 0 0.0 0.0 0.00 0.00 0.00 76 1012.3
20260905173318 78 65 0.0 0.0 0.00 0.00 0.00 78 1011.8
20260905173046 78 0 0.0 0.0 0.00 0.00 0.00 78 1012.3
20260905172819 78 65 0.0 0.0 0.00 0.00 0.00 77 1011.9
20260905172525 78 0 0.0 0.0 0.00 0.00 0.00 78 1012.4
20260905172333 78 65 0.0 0.0 0.00 0.00 0.00 78 1011.9
20260905172028 78 0 0.0 0.0 0.00 0.00 0.00 78 1012.5
20260905171829 78 65 0.0 0.0 0.00 0.00 0.00 76 1011.9
20260905171544 78 0 0.0 0.0 0.00 0.00 0.00 78 1012.4
20260905171324 79 65 0.0 0.0 0.00 0.00 0.00 79 1012.0
20260905171024 78 0 0.0 0.0 0.00 0.00 0.00 77 1012.6
20260905170818 79 65 0.0 0.0 0.00 0.00 0.00 77 1012.0
20260905170525 78 0 0.0 0.0 0.00 0.00 0.00 78 1012.5
20260905170352 79 65 0.0 0.0 0.00 0.00 0.00 79 1012.1
20260905170053 78 0 0.0 0.0 0.00 0.00 0.00 75 1012.5
20260905165828 78 65 0.0 0.0 0.00 0.00 0.00 77 1012.1
20260905165525 78 0 0.0 2.0 0.00 0.00 0.00 75 1012.6
20260905165342 79 65 0.0 2.0 0.00 0.00 0.00 75 1012.1
20260905165029 78 0 0.0 2.0 0.00 0.00 0.00 77 1012.6
20260905164834 79 65 0.0 2.0 0.00 0.00 0.00 77 1012.1
20260905164545 78 0 0.0 2.0 0.00 0.00 0.00 75 1012.5
20260905164347 79 63 0.0 0.0 0.00 0.00 0.00 78 1012.0
20260905164026 78 0 0.0 0.0 0.00 0.00 0.00 76 1012.6
20260905163840 79 63 0.0 0.0 0.00 0.00 0.00 76 1012.2
20260905163525 78 0 0.0 0.0 0.00 0.00 0.00 76 1012.6
20260905163333 79 63 0.0 0.0 0.00 0.00 0.00 75 1012.2
20260905163046 78 0 0.0 0.0 0.00 0.00 0.00 77 1012.6
20260905162826 79 63 0.0 0.0 0.00 0.00 0.00 79 1012.1
20260905162530 78 0 0.0 0.0 0.00 0.00 0.00 79 1012.6
20260905162320 79 22 0.0 0.0 0.00 0.00 0.00 77 1012.2
20260905162029 78 0 0.0 0.0 0.00 0.00 0.00 76 1012.7
20260905161834 79 22 0.0 0.0 0.00 0.00 0.00 78 1012.3
20260905161558 78 0 0.0 0.0 0.00 0.00 0.00 77 1012.8
20260905161328 79 21 0.0 0.0 0.00 0.00 0.00 77 1012.4
20260905161025 78 0 0.0 0.0 0.00 0.00 0.00 77 1012.9
20260905160822 79 21 0.0 0.0 0.00 0.00 0.00 77 1012.4
20260905160524 78 0 0.0 1.0 0.00 0.00 0.00 77 1012.9
20260905160317 79 21 0.0 1.0 0.00 0.00 0.00 76 1012.5
20260905160051 78 0 0.0 7.0 0.00 0.00 0.00 78 1012.8
20260905155831 79 20 0.0 6.0 0.00 0.00 0.00 78 1012.5
20260905155523 78 0 0.0 7.0 0.00 0.00 0.00 77 1012.9
20260905155328 78 73 1.0 6.0 0.00 0.00 0.00 77 1012.5
20260905155023 77 0 0.0 0.0 0.00 0.00 0.00 78 1013.0
20260905154821 78 79 0.0 0.0 0.00 0.00 0.00 82 1012.5
20260905154548 77 0 0.0 0.0 0.00 0.00 0.00 82 1012.9
20260905154316 78 79 0.0 0.0 0.00 0.00 0.00 84 1012.6
20260905154025 77 0 0.0 0.0 0.00 0.00 0.00 80 1013.0
20260905153828 77 79 0.0 0.0 0.00 0.00 0.00 81 1012.6
20260905153524 77 0 0.0 0.0 0.00 0.00 0.00 81 1013.0
20260905153342 77 79 0.0 0.0 0.00 0.00 0.00 84 1012.6
20260905153045 77 0 0.0 0.0 0.00 0.00 0.00 81 1013.1
20260905152816 77 79 0.0 0.0 0.00 0.00 0.00 80 1012.7
20260905152524 77 0 0.0 0.0 0.00 0.00 0.00 80 1013.2
20260905152349 77 79 0.0 0.0 0.00 0.00 0.00 81 1012.8
20260905152024 77 0 0.0 0.0 0.00 0.00 0.00 82 1013.4
20260905151820 77 79 0.0 0.0 0.00 0.00 0.00 81 1012.9
20260905151559 77 0 0.0 0.0 0.00 0.00 0.00 80 1013.4
20260905151336 78 79 0.0 0.0 0.00 0.00 0.00 80 1013.0
20260905151029 77 0 0.0 0.0 0.00 0.00 0.00 79 1013.5
20260905150828 78 79 0.0 0.0 0.00 0.00 0.00 80 1013.0
20260905150530 77 0 0.0 0.0 0.00 0.00 0.00 81 1013.4
20260905150322 78 74 0.0 0.0 0.00 0.00 0.00 80 1012.9
20260905150047 77 0 0.0 0.0 0.00 0.00 0.00 81 1013.4
20260905145819 78 74 0.0 0.0 0.00 0.00 0.00 80 1012.9
20260905145527 77 0 0.0 0.0 0.00 0.00 0.00 78 1013.3
20260905145334 78 74 0.0 0.0 0.00 0.00 0.00 80 1012.8
20260905145056 77 0 0.0 0.0 0.00 0.00 0.00 81 1013.2
20260905144827 78 74 0.0 0.0 0.00 0.00 0.00 79 1012.7
20260905144544 77 0 0.0 0.0 0.00 0.00 0.00 81 1013.2
20260905144325 78 74 0.0 0.0 0.00 0.00 0.00 81 1012.8
20260905144030 77 0 0.0 0.0 0.00 0.00 0.00 80 1013.2
20260905143840 78 74 0.0 0.0 0.00 0.00 0.00 82 1012.8
20260905143529 77 0 0.0 0.0 0.00 0.00 0.00 79 1013.1
20260905143336 77 74 0.0 0.0 0.00 0.00 0.00 81 1012.7
20260905143046 77 0 0.0 1.0 0.00 0.00 0.00 81 1013.1
20260905142829 77 74 0.0 1.0 0.00 0.00 0.00 83 1012.6
20260905142525 76 0 0.0 1.0 0.00 0.00 0.00 82 1013.1
20260905142323 77 74 0.0 1.0 0.00 0.00 0.00 81 1012.6
20260905142026 76 0 0.0 1.0 0.00 0.00 0.00 81 1013.0
20260905141815 77 77 0.0 0.0 0.00 0.00 0.00 82 1012.4
20260905141544 76 0 0.0 0.0 0.00 0.00 0.00 83 1012.8
20260905141351 76 77 0.0 0.0 0.00 0.00 0.00 83 1012.2
20260905141024 76 0 0.0 0.0 0.00 0.00 0.00 81 1012.7
20260905140823 76 77 0.0 0.0 0.00 0.00 0.00 82 1012.1
20260905140524 76 0 0.0 2.0 0.00 0.00 0.00 83 1012.5
20260905140316 76 74 0.0 2.0 0.00 0.00 0.00 84 1012.0
20260905140055 75 0 0.0 2.0 0.00 0.00 0.00 83 1012.6
20260905135829 76 75 0.0 2.0 0.00 0.00 0.00 83 1012.1
20260905135530 75 0 0.0 1.0 0.00 0.00 0.00 85 1012.6
20260905135323 75 48 0.0 1.0 0.00 0.00 0.00 84 1012.0
20260905135023 75 0 0.0 2.0 0.00 0.00 0.00 83 1012.6
20260905134817 75 73 0.0 2.0 0.00 0.00 0.00 84 1012.0
20260905134554 74 0 0.0 2.0 0.00 0.00 0.00 85 1012.6
20260905134331 75 73 0.0 2.0 0.00 0.00 0.00 86 1012.1
20260905134024 74 0 0.0 0.0 0.00 0.00 0.00 86 1012.7
20260905133847 74 77 0.0 0.0 0.00 0.00 0.00 86 1012.1
20260905133524 74 0 0.0 0.0 0.00 0.00 0.00 88 1012.7
20260905133320 74 75 0.0 0.0 0.00 0.00 0.00 89 1012.1
20260905133045 74 0 0.0 0.0 0.00 0.00 0.00 89 1012.6
20260905132833 74 75 0.0 0.0 0.00 0.00 0.00 91 1012.1
20260905132524 73 0 0.0 0.0 0.00 0.00 0.00 90 1012.7
20260905132327 74 63 0.0 0.0 0.00 0.00 0.00 90 1012.2
20260905132025 73 0 0.0 0.0 0.00 0.00 0.00 90 1012.8
20260905131822 73 63 0.0 0.0 0.00 0.00 0.00 91 1012.3
20260905131547 73 0 0.0 0.0 0.00 0.00 0.00 91 1012.8
20260905131318 73 28 0.0 0.0 0.00 0.00 0.00 92 1012.3
20260905131025 72 0 0.0 0.0 0.00 0.00 0.00 93 1012.8
20260905130852 73 28 0.0 0.0 0.00 0.00 0.00 94 1012.2
20260905130527 72 0 0.0 0.0 0.00 0.00 0.00 93 1012.7
20260905130326 73 28 0.0 0.0 0.00 0.00 0.00 94 1012.1
20260905130044 72 0 0.0 0.0 0.00 0.00 0.00 92 1012.8
20260905125819 72 28 0.0 0.0 0.00 0.00 0.00 93 1012.3
20260905125525 72 0 0.0 1.0 0.00 0.00 0.00 93 1012.8
20260905125319 72 28 0.0 1.0 0.00 0.00 0.00 93 1012.3
20260905125025 72 0 0.0 1.0 0.00 0.00 0.00 93 1012.7
20260905124831 72 28 0.0 1.0 0.00 0.00 0.00 94 1012.1
20260905124600 71 0 0.0 0.0 0.00 0.00 0.00 94 1012.5
20260905124325 72 28 0.0 0.0 0.00 0.00 0.00 94 1012.0
20260905124026 71 0 0.0 0.0 0.00 0.00 0.00 95 1012.6
20260905123837 72 27 0.0 0.0 0.00 0.00 0.00 96 1012.0
20260905123524 71 0 0.0 0.0 0.00 0.00 0.00 96 1012.4
20260905123329 72 27 0.0 0.0 0.00 0.00 0.00 97 1011.8
20260905123049 71 0 0.0 0.0 0.00 0.00 0.00 97 1012.4
20260905122823 71 27 0.0 0.0 0.00 0.00 0.00 97 1011.8
20260905122530 71 0 0.0 0.0 0.00 0.00 0.00 97 1012.4
20260905122318 71 27 0.0 0.0 0.00 0.00 0.00 97 1011.9
20260905122027 70 0 0.0 0.0 0.00 0.00 0.00 97 1012.4
20260905121832 71 0.0 0.0 0.00 0.00 0.00 97 1011.9
20260905121544 70 0 0.0 0.0 0.00 0.00 0.00 97 1012.4
20260905121329 71 0.0 0.0 0.00 0.00 0.00 97 1011.9
20260905121025 70 0 0.0 0.0 0.00 0.00 0.00 97 1012.5
20260905120846 70 0.0 0.0 0.00 0.00 0.00 97 1012.0
20260905120525 70 0 0.0 0.0 0.00 0.00 0.00 97 1012.5
20260905120322 70 0.0 0.0 0.00 0.00 0.00 97 1011.9
20260905120045 69 0 0.0 0.0 0.00 0.00 0.00 97 1012.4
20260905115818 70 0.0 0.0 0.00 0.00 0.00 97 1011.9
20260905115528 69 0 0.0 0.0 0.00 0.00 0.00 97 1012.4
20260905115312 69 0.0 0.0 0.00 0.00 0.00 97 1011.7
20260905115028 69 0 0.0 0.0 0.00 0.00 0.00 96 1012.3
20260905114847 69 0.0 0.0 0.00 0.00 0.00 97 1011.7
20260905114543 68 0 0.0 0.0 0.00 0.00 0.00 97 1012.2
20260905114340 69 0.0 0.0 0.00 0.00 0.00 97 1011.7
20260905114024 68 0 0.0 0.0 0.00 0.00 0.00 96 1012.3
20260905113822 69 0.0 0.0 0.00 0.00 0.00 97 1011.6
20260905113525 68 0 0.0 0.0 0.00 0.00 0.00 96 1012.2
20260905113316 68 0.0 0.0 0.00 0.00 0.00 96 1011.6
20260905113048 68 0 0.0 0.0 0.00 0.00 0.00 96 1012.1
20260905112830 68 0.0 0.0 0.00 0.00 0.00 96 1011.4
20260905112525 68 0.0 0.0 0.00 0.00 0.00 96 1012.1
20260905112328 68 0.0 0.0 0.00 0.00 0.00 96 1011.5
20260905112030 68 0.0 0.0 0.00 0.00 0.00 96 1012.1
20260905111821 68 0.0 0.0 0.00 0.00 0.00 96 1011.6
20260905111601 68 0.0 0.0 0.00 0.00 0.00 96 1012.1
20260905111314 68 0.0 0.0 0.00 0.00 0.00 96 1011.4
20260905111025 68 0.0 0.0 0.00 0.00 0.00 96 1012.0
20260905110829 68 0.0 0.0 0.00 0.00 0.00 96 1011.3
20260905110525 68 0.0 0.0 0.00 0.00 0.00 96 1011.9
20260905110322 68 0.0 0.0 0.00 0.00 0.00 96 1011.3
20260905110043 68 0.0 0.0 0.00 0.00 0.00 96 1011.8
20260905105819 68 0.0 0.0 0.00 0.00 0.00 96 1011.1
20260905105528 68 0.0 0.0 0.00 0.00 0.00 96 1011.7
20260905105315 68 0.0 0.0 0.00 0.00 0.00 96 1011.0
20260905105026 68 0.0 0.0 0.00 0.00 0.00 96 1011.7
20260905104817 68 0.0 0.0 0.00 0.00 0.00 96 1011.1
20260905104555 68 0.0 0.0 0.00 0.00 0.00 96 1011.8
20260905104313 68 0.0 0.0 0.00 0.00 0.00 96 1011.1
20260905104024 68 0.0 0.0 0.00 0.00 0.00 96 1011.7
20260905103827 68 0.0 0.0 0.00 0.00 0.00 96 1011.0
20260905103525 68 0.0 0.0 0.00 0.00 0.00 96 1011.6
20260905103323 68 0.0 0.0 0.00 0.00 0.00 96 1010.9
20260905103044 68 0.0 0.0 0.00 0.00 0.00 96 1011.3
20260905102838 68 0.0 0.0 0.00 0.00 0.00 96 1010.6
20260905102525 68 0.0 0.0 0.00 0.00 0.00 96 1011.2
20260905102322 68 0.0 0.0 0.00 0.00 0.00 96 1010.7
20260905102025 68 0.0 0.0 0.00 0.00 0.00 96 1011.4
20260905101854 68 0.0 0.0 0.00 0.00 0.00 96 1010.8
20260905101552 68 0.0 0.0 0.00 0.00 0.00 95 1011.3
20260905101345 68 0.0 0.0 0.00 0.00 0.00 96 1010.8
20260905101026 68 0.0 0.0 0.00 0.00 0.00 95 1011.5
20260905100832 68 0.0 0.0 0.00 0.00 0.00 96 1010.8
20260905100529 68 0.0 0.0 0.00 0.00 0.00 95 1011.4
20260905100325 68 0.0 0.0 0.00 0.00 0.00 96 1010.8
20260905100046 68 0.0 0.0 0.00 0.00 0.00 95 1011.4
20260905095829 68 0.0 0.0 0.00 0.00 0.00 96 1010.7
20260905095524 68 0.0 0.0 0.00 0.00 0.00 95 1011.3
20260905095324 68 0.0 0.0 0.00 0.00 0.00 96 1010.9
20260905095028 68 0.0 0.0 0.00 0.00 0.00 95 1011.4
20260905094817 68 0.0 0.0 0.00 0.00 0.00 96 1010.8
20260905094544 68 0.0 0.0 0.00 0.00 0.00 95 1011.4
20260905094328 68 0.0 0.0 0.00 0.00 0.00 96 1010.8
20260905094025 68 0.0 0.0 0.00 0.00 0.00 95 1011.4
20260905093822 68 0.0 0.0 0.00 0.00 0.00 96 1010.8
20260905093530 68 0.0 0.0 0.00 0.00 0.00 95 1011.4
20260905093320 68 0.0 0.0 0.00 0.00 0.00 96 1010.8
20260905093043 68 0.0 0.0 0.00 0.00 0.00 95 1011.3
20260905092817 68 0.0 0.0 0.00 0.00 0.00 96 1010.8
20260905092525 68 0.0 0.0 0.00 0.00 0.00 95 1011.3
20260905092332 68 0.0 0.0 0.00 0.00 0.00 96 1010.8
20260905092025 68 0.0 0.0 0.00 0.00 0.00 95 1011.2
20260905091826 68 0.0 0.0 0.00 0.00 0.00 96 1010.8
20260905091607 68 0.0 0.0 0.00 0.00 0.00 95 1011.3
20260905091341 68 0.0 0.0 0.00 0.00 0.00 96 1010.9
20260905091025 68 0.0 0.0 0.00 0.00 0.00 95 1011.3
20260905090817 68 0.0 0.0 0.00 0.00 0.00 95 1010.9
20260905090523 68 0.0 0.0 0.00 0.00 0.00 95 1011.3
20260905090315 68 0.0 0.0 0.00 0.00 0.00 95 1010.9
20260905090044 68 0.0 0.0 0.00 0.00 0.00 95 1011.3
20260905085812 69 0.0 0.0 0.00 0.00 0.00 95 1010.8
20260905085526 68 0.0 0.0 0.00 0.00 0.00 95 1011.2
20260905085328 69 0.0 0.0 0.00 0.00 0.00 95 1010.8
20260905085024 68 0.0 0.0 0.00 0.00 0.00 95 1011.3
20260905084821 69 0.0 0.0 0.00 0.00 0.00 96 1010.8
20260905084606 68 0.0 0.0 0.00 0.00 0.00 95 1011.2
20260905084334 69 0.0 0.0 0.00 0.00 0.00 96 1010.8
20260905084028 68 0.0 0.0 0.00 0.00 0.00 95 1011.2
20260905083849 69 0.0 0.0 0.00 0.00 0.00 96 1010.8
20260905083526 68 0.0 0.0 0.00 0.00 0.00 95 1011.1
20260905083324 69 0.0 0.0 0.00 0.00 0.00 96 1010.7
20260905083045 68 0.0 0.0 0.00 0.00 0.00 95 1011.1
20260905082827 69 0.0 0.0 0.00 0.00 0.00 96 1010.7
20260905082524 68 0.0 0.0 0.00 0.00 0.00 95 1011.1
20260905082325 69 0.0 0.0 0.00 0.00 0.00 95 1010.7
20260905082024 68 0.0 0.0 0.00 0.00 0.00 95 1011.2
20260905081820 69 0.0 0.0 0.00 0.00 0.00 95 1010.8
20260905081552 68 0.0 0.0 0.00 0.00 0.00 95 1011.2
20260905081314 69 0.0 0.0 0.00 0.00 0.00 95 1010.8
20260905081023 68 0.0 0.0 0.00 0.00 0.00 95 1011.4
20260905080830 69 0.0 0.0 0.00 0.00 0.00 95 1011.0
20260905080524 68 0.0 0.0 0.00 0.00 0.00 95 1011.3
20260905080326 69 0.0 0.0 0.00 0.00 0.00 95 1010.9
20260905080047 68 0.0 0.0 0.00 0.00 0.00 95 1011.4
20260905075821 69 0.0 0.0 0.00 0.00 0.00 95 1011.0
20260905075524 69 0.0 0.0 0.00 0.00 0.00 95 1011.5
20260905075318 69 0.0 0.0 0.00 0.00 0.00 95 1011.0
20260905075024 69 0.0 0.0 0.00 0.00 0.00 95 1011.4
20260905074833 69 0.0 0.0 0.00 0.00 0.00 95 1011.0
20260905074550 69 0.0 0.0 0.00 0.00 0.00 95 1011.4
20260905074348 69 0.0 0.0 0.00 0.00 0.00 95 1010.9
20260905074025 69 0.0 0.0 0.00 0.00 0.00 95 1011.4
20260905073824 69 0.0 0.0 0.00 0.00 0.00 95 1011.0
20260905073525 69 0.0 0.0 0.00 0.00 0.00 95 1011.5
20260905073338 69 0.0 0.0 0.00 0.00 0.00 95 1011.0
20260905073045 69 0.0 0.0 0.00 0.00 0.00 95 1011.5
20260905072829 69 0.0 0.0 0.00 0.00 0.00 95 1011.0
20260905072524 69 0.0 0.0 0.00 0.00 0.00 95 1011.5
20260905072325 69 0.0 0.0 0.00 0.00 0.00 95 1011.0
20260905072025 69 0.0 0.0 0.00 0.00 0.00 95 1011.5
20260905071821 70 0.0 0.0 0.00 0.00 0.00 95 1011.1
20260905071546 69 0.0 0.0 0.00 0.00 0.00 95 1011.6
20260905071317 70 0.0 0.0 0.00 0.00 0.00 95 1011.1
20260905071028 69 0.0 0.0 0.00 0.00 0.00 95 1011.6
20260905070813 70 0.0 0.0 0.00 0.00 0.00 95 1011.1
20260905070527 69 0.0 0.0 0.00 0.00 0.00 95 1011.7
20260905070330 70 0.0 0.0 0.00 0.00 0.00 95 1011.3
20260905070106 69 0.0 0.0 0.00 0.00 0.00 95 1011.8
20260905065826 70 0.0 0.0 0.00 0.00 0.00 95 1011.3
20260905065531 69 0.0 0.0 0.00 0.01 0.00 95 1011.8
20260905065342 70 0.0 0.0 0.00 0.00 0.00 95 1011.4
20260905065025 69 0.0 0.0 0.00 0.01 0.00 95 1011.9
20260905064817 70 0.0 0.0 0.00 0.00 0.00 95 1011.4
20260905064547 69 0.0 0.0 0.00 0.01 0.00 95 1012.0
20260905064317 70 0.0 0.0 0.00 0.00 0.00 95 1011.5
20260905064026 70 0.0 0.0 0.00 0.01 0.00 95 1012.0
20260905063812 70 0.0 0.0 0.00 0.00 0.00 95 1011.6
20260905063525 70 0.0 0.0 0.00 0.01 0.00 95 1012.1
20260905063327 70 0.0 0.0 0.00 0.00 0.00 95 1011.6
20260905063044 70 0.0 0.0 0.00 0.01 0.00 95 1012.1
20260905062822 70 0.0 0.0 0.00 0.00 0.00 95 1011.7
20260905062527 70 0.0 0.0 0.00 0.01 0.00 94 1012.2
20260905062318 70 0.0 0.0 0.00 0.00 0.00 95 1011.8
20260905062028 70 0.0 0.0 0.00 0.01 0.00 94 1012.3
20260905061834 70 0.0 0.0 0.00 0.00 0.00 95 1011.9
20260905061543 70 0.0 0.0 0.00 0.01 0.00 94 1012.4
20260905061330 70 0.0 0.0 0.00 0.00 0.00 95 1012.0
20260905061024 70 0.0 0.0 0.00 0.01 0.00 94 1012.4
20260905060826 70 0.0 0.0 0.00 0.00 0.00 95 1011.9
20260905060524 70 0.0 0.0 0.00 0.01 0.00 94 1012.5
20260905060322 71 0.0 0.0 0.00 0.00 0.00 95 1012.0
20260905060048 70 0.0 0.0 0.00 0.01 0.00 94 1012.5
20260905060027 71 0.0 0.0 0.00 0.00 0.00 95 1012.1
20260905055524 70 0.0 0.0 0.00 0.04 0.00 94 1012.5
20260905055024 70 0.0 0.0 0.00 0.04 0.00 94 1012.6
20260905054556 70 0.0 0.0 0.00 0.04 0.00 94 1012.6
20260905054313 71 0.0 0.0 0.00 0.01 0.00 95 1012.1
20260905054029 70 0.0 0.0 0.00 0.04 0.00 94 1012.7
20260905053813 71 0.0 0.0 0.00 0.01 0.00 95 1012.2
20260905053529 70 0.0 0.0 0.00 0.04 0.00 94 1012.9
20260905053344 71 0.0 0.0 0.00 0.01 0.00 95 1012.3
20260905053047 70 0.0 0.0 0.00 0.04 0.00 94 1012.8
20260905052822 71 0.0 0.0 0.00 0.01 0.00 95 1012.3
20260905052524 70 0.0 0.0 0.00 0.04 0.00 94 1012.8
20260905052316 71 0.0 0.0 0.00 0.01 0.00 94 1012.3
20260905052028 71 0.0 0.0 0.00 0.04 0.00 94 1012.8
20260905051829 71 0.0 0.0 0.00 0.01 0.00 94 1012.3
20260905051554 71 0.0 0.0 0.00 0.04 0.00 94 1012.9
20260905051342 71 0.0 0.0 0.00 0.01 0.00 94 1012.4
20260905051028 71 0.0 0.0 0.00 0.04 0.00 94 1013.0
20260905050817 71 0.0 0.0 0.00 0.01 0.00 94 1012.5
20260905050528 71 0.0 0.0 0.00 0.04 0.00 94 1013.1
20260905050313 71 0.0 0.0 0.00 0.01 0.00 95 1012.6
20260905050050 71 0.0 0.0 0.00 0.04 0.00 94 1013.1
20260905045830 72 0.0 0.0 0.00 0.04 0.00 95 1012.5
20260905045527 71 0.0 0.0 0.00 0.20 0.00 94 1013.1
20260905045346 72 0.0 0.0 0.00 0.04 0.00 95 1012.6
20260905045027 71 0.0 0.0 0.00 0.20 0.00 94 1013.1
20260905044821 72 0.0 0.0 0.00 0.04 0.00 94 1012.5
20260905044546 71 0.0 0.0 0.00 0.20 0.00 94 1013.0
20260905044316 72 0.0 0.0 0.00 0.04 0.00 94 1012.6
20260905044025 71 0.0 0.0 0.00 0.20 0.00 94 1013.1
20260905043830 72 0.0 0.0 0.00 0.04 0.00 94 1012.6
20260905043525 71 0.0 0.0 0.00 0.20 0.00 94 1013.1
20260905043325 72 0.0 0.0 0.00 0.04 0.00 94 1012.5
20260905043044 71 0.0 0.0 0.00 0.20 0.00 94 1013.1
20260905042822 72 0.0 0.0 0.00 0.04 0.00 94 1012.6
20260905042525 71 0.0 0.0 0.00 0.20 0.00 94 1013.2
20260905042317 72 0.0 0.0 0.00 0.04 0.00 94 1012.6
20260905042025 71 0.0 0.0 0.00 0.20 0.00 94 1013.2
20260905041814 72 0.0 0.0 0.00 0.04 0.00 94 1012.6
20260905041557 72 0.0 0.0 0.00 0.20 0.00 94 1013.2
20260905041330 72 0.0 0.0 0.00 0.04 0.00 94 1012.6
20260905041027 72 0.0 0.0 0.00 0.20 0.00 94 1013.2
20260905040845 72 0.0 0.0 0.00 0.04 0.00 94 1012.6
20260905040527 72 0.0 0.0 0.00 0.20 0.00 94 1013.2
20260905040320 72 0.0 0.0 0.00 0.04 0.00 94 1012.5
20260905040055 72 0.0 0.0 0.00 0.20 0.00 94 1013.2
20260905035816 72 0.0 0.0 0.00 0.20 0.04 94 1012.6
20260905035529 72 0.0 0.0 0.00 0.20 0.04 93 1013.2
20260905035329 72 0.0 0.0 0.00 0.20 0.04 94 1012.6
20260905035024 72 0.0 0.0 0.00 0.20 0.04 94 1013.2
20260905034822 72 0.0 0.0 0.00 0.20 0.04 94 1012.6
20260905034548 72 0.0 0.0 0.00 0.20 0.04 94 1013.3
20260905034320 72 0.0 0.0 0.00 0.20 0.04 94 1012.7
20260905034028 72 0.0 0.0 0.00 0.20 0.04 93 1013.4
20260905033818 73 0.0 0.0 0.00 0.20 0.04 94 1012.8
20260905033526 72 0.0 0.0 0.00 0.20 0.04 94 1013.4
20260905033313 73 0.0 0.0 0.00 0.20 0.04 94 1012.8
20260905033051 72 0.0 0.0 0.00 0.20 0.04 94 1013.5
20260905032830 73 0.0 0.0 0.00 0.20 0.04 94 1012.8
20260905032525 72 0.0 0.0 0.00 0.20 0.04 94 1013.4
20260905032325 73 0.0 0.0 0.00 0.20 0.04 94 1012.8
20260905032028 72 0.0 0.0 0.00 0.20 0.04 94 1013.4
20260905031820 73 0.0 0.0 0.00 0.20 0.04 94 1012.9
20260905031553 72 0.0 0.0 0.00 0.20 0.04 94 1013.5
20260905031316 73 0.0 0.0 0.00 0.20 0.04 94 1012.8
20260905031027 72 0.0 0.0 0.00 0.20 0.04 94 1013.5
20260905030813 73 0.0 0.0 0.00 0.20 0.04 94 1012.9
20260905030527 72 0.0 0.0 0.00 0.20 0.04 94 1013.5
20260905030327 73 0.0 0.0 0.00 0.20 0.04 94 1012.8
20260905030048 72 0.0 0.0 0.00 0.20 0.04 94 1013.4
20260905025824 73 0.0 0.0 0.00 0.20 0.04 94 1012.7
20260905025528 72 0.0 0.0 0.00 0.20 0.04 93 1013.3
20260905025340 73 0.0 0.0 0.00 0.20 0.04 94 1012.6
20260905025025 72 0.0 0.0 0.00 0.20 0.04 93 1013.3
20260905024911 73 0.0 0.0 0.00 0.20 0.04 94 1012.7
20260905024559 72 0.0 0.0 0.00 0.20 0.04 93 1013.3
20260905024325 73 0.0 0.0 0.00 0.20 0.04 94 1012.7
20260905024027 73 0.0 0.0 0.00 0.20 0.04 93 1013.3
20260905023818 73 0.0 0.0 0.00 0.20 0.04 94 1012.7
20260905023525 73 0.0 0.0 0.00 0.20 0.04 93 1013.4
20260905023314 73 0.0 0.0 0.00 0.20 0.04 94 1012.9
20260905023043 73 0.0 0.0 0.00 0.20 0.04 93 1013.4
20260905022829 73 0.0 0.0 0.00 0.20 0.04 94 1012.8
20260905022528 73 0.0 0.0 0.00 0.20 0.04 93 1013.3
20260905022326 73 0.0 0.0 0.00 0.20 0.04 93 1012.8
20260905022024 73 0.0 0.0 0.00 0.20 0.04 93 1013.2
20260905021822 73 0.0 0.0 0.00 0.20 0.04 93 1012.6
20260905021545 73 0.0 0.0 0.00 0.20 0.04 93 1013.1
20260905021318 73 0.0 0.0 0.00 0.20 0.04 93 1012.5
20260905021027 73 0.0 0.0 0.00 0.20 0.04 93 1013.0
20260905020815 73 0.0 0.0 0.00 0.20 0.04 93 1012.4
20260905020525 73 0.0 0.0 0.00 0.20 0.04 93 1013.0
20260905020330 73 0.0 0.0 0.00 0.20 0.04 93 1012.5
20260905020059 73 0.0 0.0 0.00 0.20 0.04 92 1013.1
20260905015822 74 0.0 0.0 0.00 0.20 0.04 93 1012.5
20260905015524 73 0.0 0.0 0.00 0.20 0.04 92 1013.0
20260905015320 74 0.0 0.0 0.00 0.20 0.04 93 1012.5
20260905015028 73 0.0 0.0 0.00 0.20 0.04 92 1013.0
20260905014816 74 0.0 0.0 0.00 0.20 0.04 93 1012.5
20260905014546 73 0.0 0.0 0.00 0.20 0.04 92 1013.0
20260905014327 74 0.0 0.0 0.00 0.20 0.04 93 1012.5
20260905014024 74 0.0 0.0 0.00 0.20 0.04 92 1012.9
20260905013820 74 0.0 0.0 0.00 0.20 0.04 93 1012.4
20260905013527 74 0.0 0.0 0.00 0.20 0.04 92 1012.8
20260905013313 74 0.0 0.0 0.00 0.20 0.04 92 1012.4
20260905013043 74 0.0 0.0 0.00 0.20 0.04 92 1012.8
20260905012829 74 0.0 0.0 0.00 0.20 0.04 92 1012.3
20260905012525 74 0.0 0.0 0.00 0.20 0.04 92 1012.8
20260905012325 75 0.0 0.0 0.00 0.20 0.04 92 1012.2
20260905012025 74 0.0 0.0 0.00 0.20 0.04 92 1012.5
20260905011819 75 0.0 0.0 0.00 0.20 0.04 92 1012.0
20260905011546 74 0.0 0.0 0.00 0.20 0.04 92 1012.5
20260905011316 75 0.0 0.0 0.00 0.20 0.04 92 1012.0
20260905011025 74 0.0 0.0 0.00 0.20 0.04 92 1012.4
20260905010831 75 0.0 0.0 0.00 0.20 0.04 92 1011.8
20260905010525 75 0.0 0.0 0.00 0.20 0.04 91 1012.4
20260905010347 75 0.0 0.0 0.00 0.20 0.04 92 1011.8
20260905010049 75 0.0 0.0 0.00 0.20 0.04 91 1012.3
20260905005821 75 0.0 0.0 0.00 0.20 0.04 92 1011.6
20260905005524 75 0.0 0.0 0.00 0.20 0.04 91 1012.1
20260905005318 75 0.0 0.0 0.00 0.20 0.04 92 1011.6
20260905005025 75 0.0 0.0 0.00 0.20 0.04 91 1012.1
20260905004833 76 0.0 0.0 0.00 0.20 0.04 92 1011.6
20260905004547 75 0.0 0.0 0.00 0.20 0.04 91 1012.3
20260905004328 76 0.0 0.0 0.00 0.20 0.04 92 1011.7
20260905004030 75 0.0 0.0 0.00 0.20 0.04 91 1012.3